Andover, NJ

3:46 AM EST on December 11, 2019 (GMT -0500)
Andover

Weather History for K12N - September, 2019

Change the Weather History Date:

Sunday, September 29, 2019

  Actual Average (WUND) Record (WUND)
Temperature  
Mean Temperature 70 °F -  
Max Temperature 80 °F - - (-1)
Min Temperature 59 °F - - (-1)
Cooling Degree Days 4    
Growing Degree Days 20 (Base 50)    
Moisture  
Dew Point 54 °F    
Average Humidity 65    
Maximum Humidity 100    
Minimum Humidity 38    
Precipitation  
Precipitation 0.00 in - - ()
Sea Level Pressure  
Sea Level Pressure 30.23 in    
Wind  
Wind Speed 2 mph (NE)    
Max Wind Speed 7 mph    
Max Gust Speed -    
Averages and records for this station are not official NWS values.
T = Trace of Precipitation, MM = Missing Value Source: NWS Daily Summary

Daily Weather History Graph

Daily Weather History Graph

Search for Another Location

Airport or City:

Astronomy

Sep. 29, 2019 Rise Set
Actual Time 6:53 AM EDT 6:44 PM EDT
Civil Twilight 6:25 AM EDT 7:12 PM EDT
Nautical Twilight 5:53 AM EDT 7:43 PM EDT
Astronomical Twilight 5:21 AM EDT 8:16 PM EDT
Moon 7:40 AM EDT (9/29) 7:43 PM EDT (9/29)
Length of Visible Light 12h 46m
Length of Day
11h 51m
New Moon, 1% of the Moon is Illuminated
Sep 29
New Moon
Oct 5
First Quarter
Oct 13
Full
Oct 21
Last Quarter
Oct 27
New

Hourly Weather History & Observations

Time (EDT) Temp. Dew Point Humidity Pressure Visibility Wind Dir Wind Speed Gust Speed Precip Events Conditions
12:54 AM 66.0 °F 64.9 °F 96% 30.11 in - Calm Calm - N/A   Unknown
1:54 AM 64.0 °F 63.0 °F 96% 30.12 in - Calm Calm - N/A   Unknown
2:54 AM 63.0 °F 63.0 °F 100% 30.12 in - Calm Calm - N/A   Unknown
3:54 AM 62.1 °F 61.0 °F 96% 30.13 in - Calm Calm - N/A   Unknown
4:54 AM 62.1 °F 61.0 °F 96% 30.16 in - Calm Calm - N/A   Unknown
5:54 AM 61.0 °F 60.1 °F 97% 30.18 in - Calm Calm - N/A   Unknown
6:54 AM 60.1 °F 59.0 °F 96% 30.19 in - SSW 3.5 mph - N/A   Unknown
7:54 AM 64.9 °F 63.0 °F 93% 30.22 in - Variable 3.5 mph - N/A   Unknown
8:54 AM 70.0 °F 60.1 °F 71% 30.23 in - Variable 3.5 mph - N/A   Unknown
9:54 AM 71.1 °F 59.0 °F 66% 30.26 in - Variable 3.5 mph - N/A   Unknown
10:54 AM 73.0 °F 57.9 °F 59% 30.26 in - Variable 6.9 mph - N/A   Unknown
11:54 AM 75.0 °F 57.9 °F 55% 30.26 in - Variable 4.6 mph - N/A   Unknown
12:54 PM 75.9 °F 55.9 °F 50% 30.25 in - Variable 5.8 mph - N/A   Unknown
1:54 PM 78.1 °F 55.0 °F 45% 30.24 in - Variable 5.8 mph - N/A   Unknown
2:54 PM 79.0 °F 55.0 °F 44% 30.23 in - Variable 4.6 mph - N/A   Unknown
3:54 PM 78.1 °F 53.1 °F 42% 30.23 in - Calm Calm - N/A   Unknown
4:54 PM 77.0 °F 54.0 °F 45% 30.22 in - ENE 4.6 mph - N/A   Unknown
5:54 PM 72.0 °F 48.0 °F 43% 30.25 in - NE 4.6 mph - N/A   Unknown
6:54 PM 68.0 °F 42.1 °F 39% 30.27 in - Variable 3.5 mph - N/A   Unknown
7:54 PM 63.0 °F 41.0 °F 45% 30.29 in - NE 3.5 mph - N/A   Unknown
8:54 PM 62.1 °F 41.0 °F 46% 30.29 in - NE 4.6 mph - N/A   Unknown
9:54 PM 60.1 °F 39.9 °F 47% 30.30 in - Variable 4.6 mph - N/A   Unknown
10:54 PM 61.0 °F 35.1 °F 38% 30.30 in - Variable 4.6 mph - N/A   Unknown
11:54 PM 59.0 °F 39.0 °F 48% 30.31 in - Variable 4.6 mph - N/A   Unknown